Nellis AFB, NV

1:07 AM PST on December 07, 2019 (GMT -0800)
Nellis Air Force Base

Weather History for KLSV - September, 2019

Change the Weather History Date:

Monday, September 9, 2019

  Actual Average Record
Temperature  
Mean Temperature 81 °F -  
Max Temperature 97 °F 95 °F 104 °F (1996)
Min Temperature 66 °F 70 °F 62 °F (2001)
Cooling Degree Days 16    
Growing Degree Days 31 (Base 50)    
Moisture  
Dew Point 32 °F    
Average Humidity 16    
Maximum Humidity 29    
Minimum Humidity 8    
Precipitation  
Precipitation 0.00 in - - ()
Sea Level Pressure  
Sea Level Pressure 29.69 in    
Wind  
Wind Speed 7 mph (SE)    
Max Wind Speed 21 mph    
Max Gust Speed 31 mph    
Visibility 10 miles    
Events      
Averages and records for this station are not official NWS values.
T = Trace of Precipitation, MM = Missing Value Source: NWS Daily Summary

Daily Weather History Graph

Daily Weather History Graph

Search for Another Location

Airport or City:

Astronomy

Sep. 09, 2019 Rise Set
Actual Time 6:17 AM PDT 6:56 PM PDT
Civil Twilight 5:51 AM PDT 7:22 PM PDT
Nautical Twilight 5:21 AM PDT 7:52 PM PDT
Astronomical Twilight 4:49 AM PDT 8:24 PM PDT
Moon 4:47 PM PDT (9/9) 2:01 AM PDT (9/9)
Length of Visible Light 13h 30m
Length of Day
12h 38m
Waxing Gibbous, 83% of the Moon is Illuminated
Sep 9
Waxing Gibbous
Sep 13
Full
Sep 21
Last Quarter
Sep 28
New
Oct 5
First Quarter

Hourly Weather History & Observations

Time (PDT) Temp. Dew Point Humidity Pressure Visibility Wind Dir Wind Speed Gust Speed Precip Events Conditions
12:58 AM 74.5 °F 26.8 °F 17% 29.70 in 10.0 mi Calm Calm - N/A   Clear
1:58 AM 71.6 °F 27.1 °F 19% 29.73 in 10.0 mi NNE 6.9 mph - N/A   Clear
2:58 AM 71.1 °F 27.9 °F 20% 29.73 in 10.0 mi NE 4.6 mph - N/A   Clear
3:58 AM 71.1 °F 25.5 °F 18% 29.69 in 10.0 mi East 2.3 mph - N/A   Clear
4:58 AM 67.8 °F 25.2 °F 20% 29.70 in 10.0 mi Variable 1.2 mph - N/A   Clear
5:58 AM 66.7 °F 25.0 °F 21% 29.71 in 10.0 mi ENE 2.3 mph - N/A   Clear
6:58 AM 67.8 °F 27.5 °F 22% 29.77 in 10.0 mi Calm Calm - N/A   Clear
7:58 AM 73.4 °F 29.8 °F 20% 29.78 in 10.0 mi Calm Calm - N/A   Clear
8:58 AM 78.4 °F 30.0 °F 17% 29.78 in 10.0 mi Calm Calm - N/A   Clear
9:58 AM 84.7 °F 30.2 °F 14% 29.78 in 10.0 mi Calm Calm - N/A   Clear
10:58 AM 88.5 °F 29.5 °F 12% 29.77 in 10.0 mi ESE 11.5 mph - N/A   Clear
11:58 AM 91.2 °F 24.4 °F 9% 29.75 in 10.0 mi ESE 8.1 mph 17.3 mph N/A   Partly Cloudy
12:58 PM 94.1 °F 26.6 °F 9% 29.72 in 10.0 mi SE 18.4 mph 23.0 mph N/A   Clear
1:58 PM 95.5 °F 27.7 °F 9% 29.68 in 10.0 mi ESE 16.1 mph 27.6 mph N/A   Clear
2:58 PM 96.1 °F 25.2 °F 8% 29.65 in 10.0 mi SE 20.7 mph 31.1 mph N/A   Clear
3:53 PM 96.8 °F 26.6 °F 8% 29.69 in 10.0 mi SSE 19.6 mph 28.8 mph N/A   Clear
3:58 PM 96.4 °F 30.9 °F 10% 29.69 in 10.0 mi SE 20.7 mph 28.8 mph N/A   Clear
4:33 PM 96.8 °F 28.4 °F 9% 29.69 in 10.0 mi SSE 17.3 mph - N/A   Clear
4:58 PM 95.2 °F 27.5 °F 9% 29.68 in 10.0 mi South 18.4 mph 26.5 mph N/A   Clear
5:58 PM 93.9 °F 29.1 °F 10% 29.62 in 10.0 mi South 19.6 mph - N/A   Clear
6:58 PM 91.2 °F 35.2 °F 14% 29.61 in 10.0 mi South 15.0 mph - N/A   Clear
7:58 PM 88.9 °F 45.1 °F 22% 29.61 in 10.0 mi SSW 10.4 mph - N/A   Clear
8:58 PM 89.1 °F 39.9 °F 18% 29.62 in 10.0 mi SSW 4.6 mph - N/A   Clear
9:58 PM 86.7 °F 45.5 °F 24% 29.62 in 10.0 mi SSE 11.5 mph - N/A   Mostly Cloudy
10:58 PM 87.4 °F 51.3 °F 29% 29.62 in 10.0 mi SE 17.3 mph 23.0 mph N/A   Partly Cloudy
11:58 PM 86.7 °F 47.7 °F 26% 29.62 in 10.0 mi SSE 12.7 mph 26.5 mph N/A   Clear
11:59 PM 86.0 °F 46.4 °F 25% 29.62 in 10.0 mi SSE 12.7 mph 26.5 mph N/A   Clear